Temp
15 16 16 16 17 17 17 17 17 18 18 18 18 18 18 18 18 18 18 18 18 18 19 19 19 20 20 20 19 20 20 19 19 19 18 17 18 19 20 20 19 19 20 21 21 21 21 21 21 22 22 22 22 22 22 22 22 22 20 19 19 19 19 19 19 18 19 18 18 17 18 18 16 15 14 14 12 12 12 11 11 11 11 11 11 11 11 10
15 16 16 16 17 17 17 17 18 18 18 18 18 18 19 19 19 18 18 18 18 18 18 19 19 20 20 20 20 20 20 20 19 18 18 18 18 19 20 20 19 19 20 20 20 20 19 20 20 21 22 22 22 22 21 22 22 21 20 19 19 19 19 19 19 18 18 18 17 16 16 17 16 15 15 14 11 11 11 11 11 11 11 11 11 11 10 10
15 16 16 16 17 17 17 18 18 18 18 18 18 18 19 19 19 19 19 18 18 18 18 19 19 20 20 20 20 20 20 20 19 18 18 19 19 20 20 20 20 20 20 20 20 19 19 20 20 20 21 22 22 22 21 21 21 21 20 19 19 19 18 18 18 18 17 18 17 16 15 15 14 15 15 12 11 11 10 10 10 10 10 10 10 10 10 10
16 16 16 16 17 17 18 18 18 18 18 18 18 19 19 19 19 19 19 19 19 19 19 19 19 19 20 20 20 20 20 19 18 18 19 19 19 20 20 20 20 20 20 20 19 19 19 19 19 20 21 22 22 22 21 21 21 21 20 19 19 19 18 17 17 17 17 18 17 16 15 15 14 14 13 12 12 10 10 10 10 10 10 10 10 10 10 9
16 16 16 17 17 18 18 18 18 18 18 18 18 19 19 19 19 19 19 19 19 19 19 19 19 19 20 20 20 20 19 19 19 19 19 19 19 20 20 20 20 20 20 20 20 20 20 19 19 21 21 21 22 21 21 21 21 20 19 19 19 19 18 17 17 17 17 18 17 16 15 15 14 13 12 13 13 10 10 10 10 10 10 10 10 9 9 8
16 16 17 17 18 18 18 18 18 18 18 18 19 19 19 19 19 19 19 19 20 20 20 20 20 20 20 20 20 20 19 19 19 18 18 19 19 20 20 21 20 20 20 20 20 20 20 20 20 21 21 21 21 21 21 21 21 20 19 19 19 19 18 17 17 17 17 17 17 16 15 14 13 12 11 12 12 10 11 11 10 10 10 10 10 9 9 8
16 17 17 18 18 18 18 18 18 18 19 19 19 19 19 19 19 19 19 19 20 20 20 20 20 20 20 20 20 19 19 18 18 18 18 19 19 20 20 21 20 21 21 20 19 19 20 21 20 20 21 20 20 20 20 20 20 20 19 19 19 19 18 18 17 17 17 17 17 16 15 14 13 13 11 11 11 11 11 10 9 9 9 9 9 8 8 7
17 17 17 18 18 18 18 18 18 19 19 19 19 19 20 20 20 20 20 20 20 20 20 20 20 20 20 20 19 19 17 17 18 18 18 19 19 20 20 21 21 21 20 19 18 19 20 20 19 20 20 20 20 20 19 19 19 19 19 19 19 19 18 18 18 17 17 17 16 15 15 14 13 13 11 11 11 11 11 9 9 9 9 9 9 9 7 7
17 17 18 18 18 18 18 18 18 19 19 19 19 20 20 20 20 20 20 21 21 21 21 20 20 20 20 19 19 19 18 18 18 18 18 19 19 19 20 20 20 20 20 20 19 19 19 19 19 19 19 19 20 19 18 19 19 18 19 19 19 19 18 18 18 18 17 17 17 16 14 13 13 13 11 11 11 11 11 10 10 10 9 9 9 8 7 6
17 17 18 18 18 18 18 19 19 19 19 19 20 20 20 20 20 20 20 21 21 21 21 20 20 20 20 19 18 18 18 18 19 19 19 19 19 20 20 20 20 20 20 19 19 18 18 18 18 19 19 19 19 18 18 19 18 18 18 19 19 19 18 18 18 18 18 17 17 16 14 13 12 13 12 11 11 11 11 11 10 10 10 9 9 8 7 7
17 17 18 18 18 18 19 19 19 19 20 20 20 20 20 20 20 20 20 21 21 21 21 21 20 20 20 18 18 18 19 19 19 19 19 19 20 20 20 19 20 20 20 19 19 19 19 18 18 19 19 19 18 18 18 18 17 18 18 19 19 19 18 18 18 18 18 17 17 16 14 12 12 13 13 11 11 12 11 11 10 10 9 9 9 8 7 7
17 18 18 18 18 18 19 19 19 19 20 20 20 20 20 20 20 20 20 21 21 21 21 21 20 20 20 18 18 18 19 19 19 19 19 20 20 20 20 20 20 20 19 19 19 19 19 19 20 20 19 18 18 18 18 17 17 18 18 18 18 18 18 19 18 18 17 17 17 17 14 13 12 12 12 11 12 12 11 11 11 10 9 9 9 8 7 7
17 18 18 18 18 18 18 18 18 19 20 20 21 20 20 20 20 20 20 21 21 21 21 21 21 21 20 18 18 19 20 19 19 20 20 20 20 20 20 20 20 20 20 20 20 20 20 20 20 19 18 18 18 17 17 17 18 18 17 18 17 17 18 18 18 18 17 17 17 16 15 14 14 12 11 11 12 11 11 11 11 10 9 8 8 8 8 7
18 18 18 18 18 18 18 18 18 19 20 21 21 21 21 21 21 20 21 21 21 21 21 21 21 21 19 19 19 20 20 19 20 19 19 20 20 20 20 20 20 20 20 20 21 21 21 20 19 18 17 18 17 17 17 17 18 17 17 17 15 16 17 16 17 18 17 17 17 16 15 15 14 12 11 11 12 11 11 11 11 10 10 9 8 8 8 7
18 18 19 19 19 19 19 18 18 19 20 20 20 21 21 21 21 21 21 21 21 21 21 21 21 20 19 19 20 20 20 19 19 19 19 19 19 19 20 21 21 21 21 21 21 21 21 20 18 17 16 16 16 17 18 18 17 16 16 16 14 14 15 15 17 17 17 17 17 16 14 15 15 12 11 11 11 11 11 11 10 10 10 9 8 8 8 7
18 19 19 19 19 19 19 19 19 19 19 20 20 20 21 21 21 21 21 21 21 21 22 21 21 20 19 19 20 20 19 19 19 19 19 19 19 19 19 20 21 21 21 21 21 21 21 20 17 16 15 15 14 16 18 17 15 14 14 15 15 15 14 14 16 17 16 16 16 16 15 15 15 12 11 11 11 11 11 10 11 10 10 9 8 8 7 7
18 19 19 20 20 20 20 20 20 20 20 20 20 20 20 20 21 21 21 22 21 21 22 21 20 20 19 19 19 19 18 19 19 19 19 19 19 19 20 20 21 21 21 21 21 20 19 19 17 16 14 13 12 15 17 15 13 13 13 13 14 14 13 13 15 16 16 15 15 15 14 14 15 12 10 11 11 11 11 10 10 10 9 9 9 8 7 7
18 19 19 20 20 20 20 20 21 21 21 20 20 20 20 20 20 21 21 22 21 21 21 20 20 20 19 19 18 18 18 19 19 19 19 20 20 20 20 20 20 20 20 20 19 18 18 17 16 15 14 12 12 13 15 13 12 13 12 12 13 12 12 13 14 15 15 14 14 14 13 14 14 12 10 11 11 11 11 10 10 10 9 9 8 8 7 7
19 19 20 20 20 20 20 21 21 21 21 21 21 21 21 20 20 20 20 20 21 20 19 19 18 19 19 18 18 18 19 19 19 18 18 19 20 21 20 20 20 20 20 19 17 17 16 15 15 14 13 13 13 13 13 13 13 13 12 12 12 12 12 13 14 14 14 13 13 14 13 13 14 12 11 10 11 11 10 10 9 9 9 8 8 8 8 7
19 20 20 20 21 21 21 21 20 21 21 21 21 21 21 21 20 19 18 18 18 18 18 18 18 18 18 18 18 18 19 20 19 17 18 18 19 20 20 19 19 19 19 18 17 16 15 14 13 13 13 13 13 13 13 13 12 12 12 12 12 12 12 13 13 14 14 13 13 13 13 12 13 13 12 10 10 10 10 10 9 9 8 7 8 7 7 7
20 20 20 21 21 21 21 21 21 21 21 21 21 20 19 19 19 19 17 17 17 17 18 18 18 18 18 18 18 18 18 19 18 17 17 18 18 19 18 17 18 18 17 17 17 16 14 14 13 13 13 13 14 13 13 13 12 12 13 12 13 12 12 13 13 13 14 13 12 12 12 12 12 14 13 10 10 10 10 9 8 7 7 7 7 7 7 6
20 20 21 21 21 21 21 21 21 21 21 22 20 18 16 16 17 17 17 18 18 18 18 18 18 18 18 19 18 18 17 17 17 17 17 18 18 18 17 16 17 16 16 17 16 15 14 14 14 14 13 13 13 13 13 13 12 12 12 13 13 13 12 12 13 13 13 12 12 12 11 11 12 12 12 10 9 9 8 8 7 7 7 7 7 6 5 6
20 20 21 21 21 21 21 21 22 22 22 22 19 17 15 16 17 17 17 19 18 18 18 18 18 17 18 18 18 18 17 16 16 16 17 17 16 16 16 16 16 15 15 16 16 15 14 14 15 14 13 14 14 13 13 13 12 11 12 12 12 12 11 11 12 12 11 11 11 12 11 11 12 12 10 9 8 7 7 7 7 7 7 6 6 5 5 5
20 20 21 21 21 21 21 21 21 21 21 20 19 17 17 17 17 17 18 19 19 18 18 18 18 17 17 18 18 18 17 16 16 16 17 16 15 16 16 16 16 15 14 14 15 15 14 14 15 14 14 15 14 13 12 12 12 11 11 12 12 12 12 11 11 11 11 11 11 11 11 11 13 12 9 7 7 7 7 7 7 6 6 6 6 5 5 5
20 20 21 21 21 21 21 21 21 20 19 19 18 17 17 17 17 18 19 19 19 18 18 18 18 17 17 18 17 17 17 17 16 16 17 16 15 16 16 15 16 16 14 14 15 14 14 14 14 14 14 14 13 13 12 11 12 11 12 13 13 12 11 11 11 10 10 11 11 12 11 10 12 12 9 7 7 7 7 7 6 5 5 6 6 5 4 4
20 20 20 21 21 21 21 21 20 20 20 19 18 17 17 17 18 18 19 20 19 18 18 19 19 18 18 17 16 16 17 18 17 17 17 16 15 16 16 15 15 15 14 14 15 14 14 14 14 14 13 13 12 12 12 11 11 11 13 13 12 12 11 11 10 9 9 10 11 12 10 9 11 12 9 7 6 6 6 5 5 5 5 5 5 4 4 4
20 20 20 21 21 21 21 21 20 20 20 18 17 17 17 17 18 18 19 20 19 18 18 19 19 18 18 17 16 17 17 17 17 17 16 16 16 16 15 15 15 15 14 14 15 14 14 14 13 13 12 12 12 12 12 11 11 12 13 13 12 11 11 10 10 9 9 10 11 11 10 9 10 11 9 7 6 6 5 5 5 5 5 5 4 4 4 4
20 20 20 20 20 21 20 20 19 19 19 18 17 17 17 17 18 19 20 20 19 18 18 18 18 19 17 16 16 17 16 16 16 17 17 16 15 15 15 14 14 14 14 14 15 14 13 13 13 13 12 12 13 12 11 11 11 12 13 12 11 11 10 10 9 9 9 10 10 10 10 9 9 10 8 6 6 5 4 5 5 5 4 4 3 3 3 3
20 20 20 20 20 20 20 20 19 18 18 18 18 17 17 18 18 19 20 19 18 18 17 17 18 18 16 16 16 15 16 16 15 16 16 15 14 15 15 13 13 14 14 14 15 14 13 12 12 12 12 12 13 12 12 12 12 12 12 11 10 10 10 9 9 10 9 10 10 9 9 8 7 9 8 7 6 5 4 5 5 4 3 3 3 3 3 3
19 20 20 20 20 19 19 19 19 18 18 18 18 17 18 18 18 20 20 18 18 17 17 17 17 16 15 16 16 15 15 16 15 15 15 13 13 13 13 12 12 14 15 14 14 13 12 11 11 12 12 12 12 12 13 12 11 12 12 11 10 10 10 10 10 11 10 9 10 9 9 8 6 7 7 6 6 5 5 5 4 4 3 2 3 2 3 2
18 18 19 19 19 18 18 18 18 18 18 18 18 17 18 19 19 20 19 17 17 17 16 16 15 14 14 14 15 14 14 15 15 14 14 12 11 11 12 12 11 13 15 14 14 12 12 12 12 12 12 11 12 13 13 12 10 11 11 9 9 9 9 10 10 10 8 8 9 9 9 8 6 7 6 5 5 5 5 4 3 3 2 2 2 2 2 2
18 18 18 18 18 17 17 17 17 17 18 18 17 17 19 20 19 18 18 17 17 16 15 14 14 14 14 14 14 13 13 15 14 14 12 11 10 8 9 9 9 12 14 12 12 12 13 13 12 12 12 11 12 12 12 12 11 11 10 8 8 7 7 8 8 8 8 8 9 9 8 7 7 7 6 5 5 5 5 3 2 2 2 2 2 1 1 1
17 17 17 17 17 17 17 16 17 17 17 17 17 18 20 21 18 16 16 17 16 14 13 13 13 13 13 14 14 12 13 14 14 13 12 12 10 9 9 8 8 11 12 11 11 11 12 12 11 12 12 12 12 12 11 11 10 10 10 9 8 6 6 6 6 7 7 7 8 8 7 7 7 7 6 6 5 5 4 3 2 2 1 1 1 1 1 1
17 17 17 17 17 17 17 17 17 17 17 17 18 20 21 20 17 14 15 15 14 13 13 12 13 14 14 14 13 12 13 14 13 13 12 12 11 10 9 8 8 9 10 10 10 10 11 12 12 12 12 12 12 11 11 11 10 10 10 10 8 7 6 5 6 6 6 6 7 7 7 6 7 7 6 6 6 5 4 3 2 1 1 1 1 1 0 0
18 17 17 17 17 17 17 17 18 17 17 18 20 20 19 18 16 15 14 13 12 13 13 12 13 15 15 14 13 12 13 14 13 12 11 11 10 9 9 8 8 8 8 10 10 10 10 12 13 12 11 11 12 11 11 10 10 10 10 9 8 8 7 6 6 6 5 5 5 6 7 7 7 7 6 5 5 5 4 2 1 1 1 0 0 0 -0 -0
18 17 17 18 18 18 18 17 18 17 17 20 21 18 15 14 13 13 12 11 11 12 13 13 14 15 15 15 14 13 12 13 13 12 11 10 9 8 8 8 8 7 8 9 9 9 9 10 12 11 11 12 11 10 10 10 10 10 9 9 9 8 7 6 5 6 5 4 5 6 6 6 6 6 5 4 4 4 3 1 1 0 -0 -0 -0 -0 -0 -0
19 18 17 18 18 19 18 17 18 17 17 20 20 15 13 11 10 10 10 10 10 10 12 15 15 14 14 14 14 14 13 13 13 13 12 10 9 8 7 7 8 7 6 7 8 9 8 9 10 10 12 12 10 10 10 9 10 10 9 8 9 8 7 6 5 5 4 3 5 6 5 4 4 4 4 3 3 2 2 0 -0 -0 -1 -1 -1 -1 -1 -1
18 18 18 18 18 19 18 17 17 17 17 17 15 13 12 11 10 9 8 9 9 10 13 15 14 14 14 13 14 13 12 13 13 13 12 11 10 8 6 7 7 7 5 5 8 8 7 8 9 10 11 11 9 10 10 10 9 9 9 9 8 7 6 6 5 4 4 3 4 5 4 4 4 3 3 2 2 1 0 -1 -1 -1 -1 -1 -1 -1 -1 -1
18 18 19 18 19 19 18 18 17 17 18 17 14 12 11 10 9 8 7 7 9 11 13 13 13 14 13 13 13 12 12 12 12 12 12 11 9 8 6 6 7 6 5 5 7 8 7 7 9 10 11 11 10 10 10 10 9 9 9 9 8 7 6 5 5 4 4 3 3 3 3 3 4 3 2 1 1 0 -1 -1 -1 -2 -2 -2 -2 -2 -2 -2
17 19 20 19 19 19 19 19 16 15 16 15 12 12 11 10 9 8 7 7 9 11 13 13 12 13 13 12 12 12 12 12 12 12 12 10 9 8 5 4 6 5 4 5 7 7 7 7 8 9 10 10 10 10 10 10 9 9 8 7 7 7 6 5 5 5 4 3 2 2 2 3 4 3 2 1 1 -1 -1 -2 -2 -2 -2 -2 -2 -2 -2 -2
17 20 21 19 19 20 20 19 15 12 13 12 12 11 11 11 10 9 7 7 9 11 11 12 12 12 12 12 12 12 11 12 12 12 11 9 9 9 6 3 4 4 5 7 7 6 7 7 6 7 8 9 10 10 9 9 9 9 8 7 6 5 5 4 4 5 4 3 3 1 1 2 4 3 2 1 -0 -1 -1 -2 -2 -2 -2 -2 -2 -2 -2 -2
18 20 20 19 20 20 19 16 12 11 12 12 11 11 11 11 11 10 9 8 10 11 11 11 12 11 11 11 12 11 11 11 12 11 10 9 8 8 6 4 3 3 4 6 6 5 5 5 5 6 7 9 10 8 7 7 9 9 8 7 6 5 5 4 3 4 4 3 3 2 1 2 3 3 2 1 -1 -1 -1 -2 -2 -2 -3 -2 -2 -3 -3 -3
19 20 19 19 20 20 19 16 12 11 11 10 10 10 10 11 11 11 10 10 11 11 11 11 11 11 11 11 11 11 11 11 11 11 9 8 7 6 5 4 4 4 4 6 6 4 5 6 6 7 7 8 9 8 7 8 8 8 7 6 6 5 5 5 4 3 2 1 2 1 0 2 3 3 2 0 -1 -2 -2 -2 -3 -3 -3 -3 -3 -3 -3 -3
18 18 18 19 20 21 21 18 14 12 11 11 11 10 10 10 11 11 11 11 11 11 12 12 11 11 11 11 11 11 11 11 11 10 9 8 7 5 4 4 4 5 5 5 5 4 6 7 7 7 6 6 8 7 7 7 7 7 6 6 6 5 4 4 3 2 1 2 2 0 -0 2 3 3 2 -0 -2 -2 -2 -2 -3 -3 -3 -3 -3 -3 -3 -3
18 18 18 18 18 18 17 15 14 13 12 12 12 12 12 11 10 10 10 11 10 10 11 11 11 10 11 11 11 11 11 11 11 10 8 8 6 5 5 4 4 5 5 4 3 3 5 7 7 7 6 5 5 6 6 6 6 5 6 6 5 4 3 3 3 1 1 2 1 -0 -0 1 2 2 1 -1 -2 -2 -2 -2 -3 -3 -3 -3 -3 -3 -3 -3
19 19 19 18 16 14 13 12 13 14 13 14 14 12 12 13 11 9 10 11 10 10 11 11 10 10 11 11 11 11 11 11 10 10 9 7 7 5 5 5 4 5 4 3 3 3 4 6 6 7 7 6 5 6 6 6 4 4 5 5 4 3 2 3 2 2 1 0 -1 0 1 0 0 0 -1 -2 -3 -3 -3 -3 -3 -3 -3 -3 -3 -4 -4 -4
19 18 17 17 17 15 15 13 13 14 14 14 14 13 12 13 12 11 10 11 10 10 11 11 10 11 11 10 10 11 11 10 9 9 8 7 7 6 5 5 5 5 4 4 3 3 5 6 6 6 6 6 6 5 5 5 4 4 5 4 3 2 2 2 2 1 1 -1 -1 1 1 -1 -1 -0 -2 -3 -3 -3 -3 -3 -3 -3 -4 -4 -4 -4 -4 -4
17 16 13 14 16 16 15 14 13 13 14 13 13 12 13 13 12 12 11 11 10 10 11 11 10 10 10 10 10 10 10 10 10 9 7 7 6 6 6 5 5 5 4 5 4 4 5 6 6 5 5 5 5 4 5 4 4 5 4 3 2 1 1 1 0 1 0 -1 -1 0 -0 -1 -1 -1 -2 -3 -3 -3 -3 -3 -3 -3 -4 -4 -4 -4 -4 -4
15 15 12 12 14 13 12 12 13 14 14 13 13 12 13 13 12 11 10 11 12 11 11 12 11 9 10 9 10 10 9 9 10 8 7 7 6 6 6 6 6 5 5 5 5 3 4 6 6 4 4 4 4 5 5 4 5 5 4 2 1 1 1 0 -0 0 -0 -1 -0 -0 -1 -1 -1 -1 -2 -2 -2 -3 -3 -3 -3 -3 -4 -4 -4 -4 -5 -5
16 17 15 13 13 12 11 12 14 15 14 13 13 13 12 12 12 11 9 10 12 12 11 11 10 9 10 10 9 9 8 8 8 7 7 7 6 6 7 7 6 5 5 6 5 4 4 6 5 3 3 4 5 5 5 5 4 4 3 2 1 0 -0 -1 -1 -0 -1 -1 -0 -1 -2 -2 -1 -2 -2 -2 -2 -3 -3 -3 -3 -4 -4 -4 -4 -4 -5 -5
16 15 15 16 15 13 13 13 14 16 15 12 13 12 12 12 11 11 9 8 9 10 10 10 9 8 9 9 9 8 7 6 6 6 6 6 6 6 6 6 6 6 6 5 4 4 4 4 4 3 3 3 5 5 4 4 4 3 2 2 1 -0 -1 -1 -1 -0 -0 -1 -1 -2 -3 -3 -2 -2 -2 -2 -2 -3 -3 -4 -4 -4 -4 -4 -4 -5 -5 -6
15 14 14 16 16 13 13 13 13 15 14 11 11 11 11 11 10 10 11 9 7 8 7 7 8 9 9 10 8 6 5 5 5 5 5 5 5 5 5 5 5 6 6 5 3 4 3 3 4 4 3 4 5 4 3 3 3 3 3 1 0 -0 -1 -1 -0 0 0 -0 -2 -3 -3 -3 -2 -2 -3 -3 -3 -3 -4 -4 -4 -4 -4 -4 -5 -5 -6 -6
Height
806 807 807 806 806 806 806 806 806 806 805 804 804 804 803 803 802 802 801 800 799 799 798 799 798 798 798 798 797 797 798 797 796 794 794 796 796 793 793 792 790 789 788 787 787 786 784 784 783 782 782 782 782 783 783 782 783 787 796 804 808 808 807 803 803 802 800 802 802 801 799 799 806 809 808 810 815 819 821 822 823 824 825 826 827 827 827 826
807 807 807 807 807 807 807 807 806 806 805 804 804 804 803 803 803 802 801 800 800 799 799 798 798 798 798 798 798 797 797 797 796 794 796 797 795 793 793 792 791 789 788 787 787 786 786 785 783 782 783 784 783 783 784 784 784 790 797 804 806 805 803 800 800 801 801 803 803 805 804 802 807 809 807 812 822 822 823 826 826 826 827 827 828 828 828 827
808 808 808 808 807 807 807 807 806 806 805 804 803 803 803 803 803 802 802 801 800 799 798 798 798 798 797 797 797 797 797 797 796 796 797 796 795 794 793 792 791 790 789 788 787 786 786 785 783 783 784 785 784 784 785 785 786 789 795 804 805 801 801 801 801 801 802 802 803 806 806 806 810 808 808 817 824 825 826 827 827 828 829 828 828 828 828 827
808 808 808 808 808 808 808 807 807 806 805 804 803 803 804 803 803 802 802 801 800 799 799 798 798 797 797 797 797 797 796 797 800 799 798 796 795 794 792 792 791 790 789 788 787 785 785 784 783 784 785 786 784 784 786 787 788 789 794 803 802 798 802 803 802 802 801 800 802 806 807 808 811 809 813 817 820 826 828 826 826 827 828 828 828 828 828 827
809 809 809 808 808 808 808 807 806 806 805 804 804 804 804 803 803 803 802 801 800 800 799 799 798 797 797 797 797 797 797 803 804 800 798 797 795 794 792 792 791 790 788 787 786 783 783 783 783 784 785 787 786 787 789 787 787 792 796 799 798 797 802 803 801 801 800 799 801 806 807 808 811 812 815 814 814 823 825 823 824 824 825 826 826 827 827 827
809 809 809 809 808 808 807 807 807 806 805 805 805 804 804 804 803 803 802 801 801 800 800 799 799 798 798 797 798 796 798 807 806 800 800 797 796 794 793 792 791 790 788 787 785 783 783 783 784 787 787 789 790 790 791 788 787 795 799 797 797 797 800 802 800 800 800 800 801 805 806 808 811 814 816 814 814 819 820 821 822 823 824 824 825 826 827 827
810 809 809 809 808 808 808 807 807 806 806 805 805 805 805 804 803 803 802 802 801 801 800 800 799 799 799 798 798 797 800 806 804 801 800 797 796 795 793 792 791 790 788 786 785 784 784 784 787 788 788 791 792 792 792 790 790 796 800 798 797 798 799 800 799 799 799 800 801 803 804 807 810 812 815 817 817 818 819 821 822 823 824 825 826 827 827 827
810 809 809 809 808 808 808 808 807 806 806 806 805 805 805 804 804 803 802 802 802 801 801 800 799 798 798 798 798 801 804 806 804 802 800 798 797 795 794 792 791 790 788 787 787 786 786 787 790 789 791 793 792 793 794 793 795 798 800 798 797 797 798 798 798 799 799 799 801 803 804 807 809 810 815 818 818 819 820 821 822 824 825 825 827 827 828 828
810 810 809 809 809 808 808 808 807 807 806 806 806 805 805 804 804 804 803 803 802 802 801 800 799 797 797 798 798 803 808 807 804 802 800 798 797 795 794 792 791 790 789 789 789 787 788 791 792 790 793 794 792 795 796 797 800 800 799 798 797 797 798 798 798 799 799 800 801 804 807 810 810 811 815 818 818 818 819 821 822 823 824 826 827 827 827 828
810 810 810 810 809 809 808 808 807 807 806 806 806 805 805 805 804 804 803 803 802 802 801 801 800 797 797 798 799 807 810 806 804 803 801 799 797 796 794 793 793 792 791 791 790 789 790 791 791 790 792 794 794 798 798 798 801 800 798 798 797 798 798 798 799 798 799 800 800 803 808 810 811 810 813 817 817 817 818 820 822 822 824 825 826 827 827 827
811 810 810 810 809 809 808 808 807 806 806 806 805 805 805 805 804 804 803 803 803 802 802 802 801 799 799 798 802 811 809 805 805 802 801 799 797 796 795 795 794 793 792 792 791 791 791 791 790 789 792 796 797 800 799 799 801 799 798 799 798 798 798 798 799 799 799 801 800 801 807 812 813 810 809 813 815 816 817 819 820 822 823 825 825 826 827 827
811 811 811 810 809 809 808 807 807 806 806 805 805 805 805 805 804 804 803 803 803 803 803 802 802 802 800 798 804 811 808 805 805 803 802 800 798 798 796 796 795 795 794 793 793 792 792 791 789 791 796 797 800 802 801 801 801 799 800 802 802 801 801 799 798 800 800 802 799 800 808 811 812 809 808 811 813 814 816 817 819 821 823 824 825 826 827 827
812 811 811 810 809 809 808 808 807 806 806 805 806 805 805 805 804 804 803 803 803 803 803 803 803 802 800 802 808 810 807 807 805 803 802 800 799 798 797 797 796 795 795 794 793 793 793 792 792 794 796 797 801 803 802 802 800 802 804 806 808 808 807 804 800 800 801 801 799 802 808 805 805 809 810 811 811 813 815 816 817 819 822 824 825 826 827 828
812 811 811 810 810 809 809 808 807 806 806 806 806 806 806 805 805 805 804 804 804 803 803 803 803 802 802 807 810 808 808 807 805 803 802 801 799 798 798 797 796 796 796 795 794 794 794 794 792 794 797 800 802 801 802 803 803 807 808 810 819 820 814 809 804 802 802 801 798 804 810 802 800 808 810 809 810 812 814 815 816 818 820 823 825 827 828 829
812 812 811 811 810 810 810 809 808 807 806 807 806 806 806 805 805 805 805 805 804 804 803 802 802 802 805 809 809 808 808 806 805 804 803 802 800 799 798 797 796 796 795 795 795 795 795 795 795 801 805 803 803 805 806 807 809 815 816 819 827 825 820 813 805 803 804 802 798 804 810 800 797 805 808 808 809 810 812 814 816 817 819 822 824 827 829 830
812 812 811 811 811 811 810 810 809 808 808 807 807 807 806 806 805 805 806 805 804 804 802 803 803 801 809 813 810 808 808 806 806 805 804 802 801 800 799 796 795 795 795 796 795 795 796 796 800 808 811 809 813 814 810 816 822 825 828 829 826 823 826 819 807 804 805 805 802 803 807 800 795 803 807 807 808 809 812 813 814 817 819 822 825 827 830 831
813 812 812 812 812 811 811 810 810 810 809 809 808 808 807 806 805 805 805 805 805 805 803 805 803 802 810 814 812 812 810 809 808 806 804 802 801 800 799 797 796 796 796 796 796 796 797 801 806 813 817 822 826 819 816 831 838 834 835 836 829 827 830 825 812 806 806 808 806 803 806 802 796 803 808 806 807 808 809 812 813 816 820 823 826 829 831 832
813 813 812 812 812 812 811 811 811 810 810 809 809 809 808 808 807 805 805 805 805 804 804 806 804 809 817 816 816 817 813 811 809 806 803 801 800 800 799 798 797 797 798 799 801 802 804 808 812 817 823 829 832 829 831 842 843 838 840 838 834 832 831 827 818 809 808 811 809 805 806 802 797 803 808 805 805 807 807 811 814 817 821 824 827 830 832 833
814 814 813 813 813 812 812 811 810 810 809 809 809 809 808 809 808 807 808 807 809 812 816 817 815 822 827 821 819 818 813 812 810 807 804 802 801 800 799 799 798 799 802 807 811 810 812 816 820 825 832 835 836 838 839 841 840 839 839 838 837 836 832 827 819 812 812 812 808 807 805 801 799 801 805 805 804 806 808 813 817 819 822 825 828 830 831 833
815 814 814 814 813 812 812 811 810 809 809 809 809 809 810 812 814 817 816 814 818 822 825 825 823 825 826 821 820 817 814 813 811 809 807 804 802 801 801 801 801 804 808 814 816 815 817 826 835 838 840 839 836 837 839 838 839 837 836 836 836 836 834 826 818 813 813 813 808 805 805 804 801 796 797 802 803 806 812 815 819 822 825 828 829 831 832 833
815 815 815 814 814 813 812 811 811 810 809 809 808 810 813 815 817 823 823 821 823 823 824 824 823 824 824 822 821 818 817 815 813 811 809 807 803 804 808 808 810 814 817 817 818 819 821 832 842 840 838 837 836 838 838 836 837 836 834 834 832 832 831 823 819 815 813 816 810 803 805 804 800 793 792 800 806 809 814 817 822 826 829 830 831 833 834 835
816 816 816 815 814 814 813 812 811 811 810 809 809 812 815 816 816 819 820 824 826 823 824 824 823 824 823 822 822 821 821 819 816 814 812 810 807 810 815 816 819 824 823 819 821 825 829 837 840 836 837 837 836 838 836 835 837 838 835 833 832 831 828 818 813 815 817 820 811 801 805 804 798 795 796 803 810 816 819 821 826 829 830 831 833 836 836 836
817 817 816 816 815 814 814 813 813 812 812 811 812 814 816 816 817 817 818 823 827 825 825 824 825 826 824 824 823 821 822 825 825 821 817 815 815 818 820 822 825 828 829 826 827 832 836 840 837 836 837 834 836 837 836 836 838 841 839 836 834 833 834 826 813 814 820 821 812 804 805 803 797 799 806 813 816 821 824 824 827 829 832 835 836 837 838 838
818 817 817 816 815 815 815 814 814 813 813 814 814 815 817 817 817 818 818 822 827 827 826 826 826 827 826 826 824 823 825 828 829 826 822 821 820 822 823 826 827 830 836 835 833 836 840 840 836 837 835 833 837 838 839 840 839 842 840 836 835 831 834 832 822 820 819 814 812 809 806 799 794 799 812 821 821 824 826 826 830 833 835 837 836 837 839 839
818 817 817 816 816 816 815 815 815 815 815 815 816 816 817 818 818 818 819 824 830 829 827 827 827 828 828 826 825 825 825 827 830 829 826 825 824 824 826 828 829 833 839 838 836 838 842 840 837 837 836 837 839 838 842 844 842 843 837 832 833 830 831 829 826 829 825 815 809 809 815 808 796 800 815 824 825 827 829 831 835 837 837 836 837 839 841 841
818 818 817 817 817 816 815 816 815 816 816 816 817 818 817 818 819 818 820 829 837 835 831 829 829 830 829 829 827 824 827 830 830 830 828 827 827 826 829 832 832 835 838 837 837 839 841 841 839 840 841 841 840 839 841 843 845 844 834 830 832 832 833 827 827 835 832 822 811 809 823 822 803 801 814 825 829 831 833 836 838 838 837 837 840 842 842 841
819 818 818 817 817 816 816 816 816 816 816 817 818 817 818 818 818 818 823 837 843 839 836 833 832 834 833 834 829 827 838 838 830 830 830 829 828 825 832 837 836 837 838 838 839 840 841 841 841 841 842 841 840 840 841 843 845 839 830 831 833 833 831 826 829 836 832 824 816 813 820 822 810 805 816 826 830 834 838 840 839 837 839 840 842 843 842 841
819 818 818 817 817 817 816 816 816 816 817 818 818 817 818 818 818 819 827 845 850 841 840 839 835 835 835 836 833 835 843 841 836 836 831 831 830 827 834 840 840 839 838 838 840 842 842 841 842 842 842 842 840 841 842 842 841 835 831 834 835 834 829 826 830 833 831 825 820 819 819 827 822 811 820 830 830 837 842 840 839 839 842 844 843 843 841 840
819 818 817 817 817 816 816 816 816 817 818 818 817 818 818 817 819 822 830 848 851 843 844 842 837 840 841 839 839 842 842 841 844 842 834 835 834 831 837 841 841 839 838 839 839 842 843 842 844 843 843 844 840 839 839 840 840 835 833 833 834 833 826 827 829 825 825 822 821 825 825 836 834 815 820 829 829 840 844 840 840 841 844 845 844 843 841 840
819 818 817 816 816 816 816 816 816 817 818 818 818 818 818 819 822 829 841 852 852 848 847 845 845 849 848 844 843 846 846 844 846 843 840 842 839 836 840 841 841 839 838 840 839 842 845 844 844 843 842 844 842 838 836 839 842 835 833 835 834 831 825 824 821 817 825 825 823 829 828 837 844 829 826 832 833 839 841 840 843 843 845 845 843 843 842 841
820 818 817 816 815 816 816 816 817 817 817 818 819 818 819 823 828 839 853 856 853 853 851 851 854 854 853 854 852 852 850 847 847 846 847 850 849 849 847 847 849 842 840 844 842 843 845 842 843 842 842 843 842 838 834 838 842 837 839 843 837 833 828 824 821 823 835 834 825 827 827 835 843 834 832 838 838 839 839 844 847 846 847 845 843 843 841 841
821 820 818 816 815 815 815 817 817 817 818 818 818 819 821 828 838 853 860 854 856 862 861 860 860 857 858 859 858 859 856 852 851 851 855 859 864 868 866 869 869 853 846 853 851 846 842 840 845 843 841 844 842 839 837 839 841 841 845 848 849 851 845 839 838 839 840 835 828 829 832 835 834 829 832 838 839 839 841 845 848 848 848 846 844 843 841 841
822 821 819 818 816 816 816 817 817 818 818 818 819 820 823 833 852 867 866 858 863 868 867 866 864 862 861 858 860 863 859 856 855 854 858 861 866 871 873 878 878 864 857 860 860 855 846 842 845 842 840 842 841 841 843 842 844 847 846 848 859 868 868 865 858 851 846 836 828 830 837 838 831 828 833 836 837 839 841 845 848 849 849 847 845 843 841 838
823 821 820 819 818 817 817 817 818 818 818 817 819 821 828 845 864 873 870 867 870 868 867 869 865 861 861 860 864 865 859 857 858 858 859 860 865 871 874 876 876 874 871 866 865 864 857 848 844 843 844 844 842 843 845 845 846 848 845 848 858 864 872 876 865 858 856 846 836 835 838 838 833 830 833 835 837 840 842 846 848 847 846 845 842 840 838 836
823 822 821 820 819 819 818 818 818 817 817 817 822 829 841 858 870 872 872 875 875 870 868 870 865 858 858 862 865 865 862 859 859 862 866 868 874 878 881 882 880 880 877 869 866 869 866 855 844 846 848 845 844 844 845 846 847 847 845 850 857 857 861 868 862 857 858 856 850 842 834 830 828 829 833 837 838 838 841 843 844 845 844 843 842 840 840 838
823 823 821 820 820 819 818 819 817 817 818 815 824 846 864 873 876 876 878 878 877 876 871 866 864 862 861 862 862 863 865 862 860 864 869 877 882 884 885 885 884 885 882 877 874 875 875 862 848 849 848 842 846 846 846 848 846 846 850 852 854 854 857 865 865 856 857 863 854 839 835 834 832 833 834 837 838 837 841 845 846 847 846 845 845 844 842 839
823 823 822 821 821 819 819 818 817 817 818 818 834 862 878 881 884 885 884 881 881 882 873 864 866 868 869 866 863 864 865 864 862 863 868 875 881 886 889 887 885 887 890 888 881 879 883 872 857 854 847 842 849 849 845 850 848 847 854 853 850 852 856 866 870 863 864 868 851 837 844 849 846 844 840 840 844 844 846 849 849 849 849 848 848 845 841 838
823 823 822 822 821 820 818 817 818 817 819 831 855 873 879 881 886 888 887 885 884 881 873 869 870 870 871 871 868 868 868 865 864 865 869 874 879 888 894 891 888 889 893 893 884 881 887 878 860 853 849 845 849 850 846 848 850 849 852 852 854 861 864 865 869 869 869 868 853 843 848 850 847 847 849 849 850 849 849 851 852 851 852 850 847 843 840 837
823 822 824 825 822 821 820 817 819 818 822 844 866 875 879 884 887 888 890 889 885 879 873 875 876 871 872 874 872 872 871 870 870 868 869 876 882 889 896 895 890 890 894 893 887 885 887 883 868 854 851 849 847 848 848 848 850 851 850 852 855 861 866 867 867 869 870 867 859 854 851 849 844 847 854 854 850 851 853 854 856 854 852 850 846 843 840 837
823 824 826 826 823 823 821 817 821 828 839 858 872 875 879 883 886 889 891 889 884 879 876 877 878 874 874 876 876 875 874 872 872 869 872 882 886 888 898 902 895 894 895 891 889 887 885 886 876 858 855 856 851 850 850 850 852 852 853 859 862 861 864 869 867 865 868 868 865 866 858 845 841 846 851 851 851 855 857 856 857 855 852 850 847 844 840 837
822 825 828 826 824 824 820 822 836 850 860 868 873 876 880 881 884 887 889 889 884 880 880 879 879 878 877 877 877 877 877 874 873 873 877 885 887 887 896 904 902 900 896 888 889 892 888 888 885 873 866 860 852 851 852 853 851 851 855 860 866 869 870 875 872 861 862 866 865 872 867 847 842 846 846 849 856 859 858 857 856 853 851 849 846 843 840 836
824 830 831 825 824 823 823 838 859 865 868 873 875 878 880 881 883 884 885 886 884 881 881 880 880 881 881 879 878 879 880 877 875 877 881 887 891 893 897 902 903 903 898 891 892 896 894 893 891 882 872 860 853 855 859 858 852 852 858 860 863 869 869 875 874 863 866 869 863 869 868 849 842 844 843 850 859 859 858 857 855 852 850 848 844 841 838 835
829 833 831 827 825 823 827 849 868 872 875 880 881 881 882 881 881 882 883 883 882 880 880 880 882 882 881 881 881 880 880 879 878 880 886 891 895 897 899 901 900 900 899 895 894 897 895 891 885 876 867 858 852 855 858 857 855 856 860 861 863 866 866 869 869 868 877 876 868 872 867 845 837 840 844 853 858 857 857 856 854 851 848 845 842 839 836 832
832 833 831 829 825 822 830 849 864 873 878 879 879 881 883 884 883 883 883 883 883 883 881 881 883 882 882 883 882 880 879 879 879 881 888 892 895 899 900 901 900 898 898 896 896 898 890 883 881 878 877 871 860 859 860 858 860 863 862 863 864 866 868 868 868 876 880 870 868 879 868 841 834 840 846 854 857 857 856 853 852 850 846 843 840 836 833 829
832 833 834 833 828 829 842 854 860 869 875 875 877 880 880 883 886 886 885 884 886 886 883 882 884 884 883 883 882 882 880 879 878 882 888 892 896 900 899 899 900 898 899 901 902 902 894 887 885 885 891 895 886 878 872 866 868 868 864 865 866 869 873 870 870 879 877 867 873 883 867 841 836 843 848 854 857 855 853 851 850 848 845 842 838 833 830 826
833 837 840 841 840 843 855 862 861 864 870 871 874 879 879 880 885 888 887 885 886 887 884 883 885 884 883 882 882 882 881 882 883 883 888 893 895 898 899 899 900 899 900 902 903 903 899 891 888 886 889 894 890 882 876 875 878 875 868 867 869 874 877 874 874 875 873 875 877 872 862 850 844 848 852 855 856 853 850 849 846 844 842 839 835 831 827 823
835 844 850 848 849 853 858 863 864 864 867 868 872 879 881 880 883 885 885 885 886 887 885 884 886 885 884 886 887 884 882 885 886 885 891 895 895 897 899 899 899 899 900 902 902 902 897 889 889 891 887 884 885 883 880 881 882 875 870 871 874 878 879 878 879 875 876 885 874 855 857 859 849 848 855 857 855 853 850 847 843 841 839 836 832 828 824 820
839 849 857 853 854 860 861 864 867 867 867 870 876 881 880 880 883 882 883 885 886 887 885 884 887 889 889 890 888 886 885 884 884 889 894 896 896 898 898 897 899 899 899 900 900 902 900 892 892 895 891 886 887 885 881 880 877 870 870 876 880 882 882 883 884 880 882 889 875 857 859 861 850 849 855 856 855 852 849 845 841 839 836 832 828 824 821 818
844 850 858 857 859 867 870 870 870 868 868 872 876 880 880 880 883 886 889 886 883 886 886 883 888 892 890 890 888 887 889 886 885 892 895 895 897 898 896 895 897 899 899 897 899 903 901 892 891 897 895 888 885 882 879 877 872 868 872 879 882 883 884 885 885 883 882 882 873 864 863 859 853 853 855 854 852 850 847 843 839 836 832 828 824 820 818 815
841 844 852 857 862 870 873 872 869 866 870 875 875 880 883 882 883 888 893 889 883 885 887 885 890 893 889 889 889 888 893 893 891 895 897 896 896 897 896 895 896 898 899 897 899 903 899 892 893 900 898 888 881 877 875 874 872 872 875 879 882 884 886 887 885 882 881 877 869 866 865 858 854 854 854 851 850 847 845 841 837 833 830 826 822 819 816 812
838 841 845 849 862 871 870 870 870 866 871 878 879 881 883 883 885 888 892 895 891 889 891 891 892 893 890 889 891 893 897 899 898 898 899 898 896 896 896 896 896 897 897 899 902 902 901 899 897 899 900 890 879 876 876 874 871 872 875 878 882 886 888 889 886 881 879 875 869 867 867 861 855 853 851 848 847 846 843 839 836 832 828 824 821 818 815 811
840 843 843 845 860 873 872 871 872 869 875 884 885 884 884 885 889 889 887 894 898 896 897 897 894 892 889 888 893 898 901 902 901 900 900 899 899 899 899 898 899 897 896 901 905 902 904 903 896 899 900 887 875 878 881 878 871 868 872 880 885 887 887 885 882 878 875 874 872 870 868 862 856 852 848 845 844 843 840 838 835 830 826 823 821 818 815 810
Wind_Speed
4 4 4 4 4 4 4 5 5 5 5 6 6 5 3 4 6 7 8 9 8 6 3 2 2 3 3 2 1 2 3 5 14 23 18 17 21 13 9 11 12 12 10 6 6 7 9 11 12 9 6 4 1 2 2 2 2 4 3 2 1 1 1 1 1 0 0 2 4 5 6 7 5 3 4 6 11 8 8 8 7 8 9 11 14 18 19 21
4 4 4 4 4 5 5 5 5 6 6 7 6 3 2 4 6 7 8 9 9 8 5 3 3 5 4 4 4 4 4 4 12 16 17 23 20 10 8 10 10 11 12 9 7 7 6 6 9 10 5 1 1 0 1 2 2 3 2 2 2 3 2 0 2 2 2 2 3 4 6 6 2 1 2 4 5 5 8 6 6 7 8 11 14 17 17 19
4 4 3 4 5 6 6 6 6 6 7 6 4 3 3 4 5 7 9 10 10 9 8 5 2 4 5 5 5 5 5 5 9 11 19 24 14 8 9 9 10 12 12 12 10 9 7 10 12 7 2 1 2 1 2 1 2 1 3 3 4 4 1 3 5 3 2 2 3 4 4 6 4 4 3 6 6 6 6 3 4 6 5 6 8 13 15 16
4 3 4 5 6 6 5 6 6 6 6 5 4 4 4 4 6 8 9 10 11 10 8 7 6 2 4 6 4 5 5 5 5 11 21 22 13 9 9 10 12 14 15 16 14 13 13 14 12 4 1 2 3 2 2 1 1 1 3 3 5 1 3 3 4 2 3 3 3 4 4 5 2 5 3 5 6 4 3 3 5 6 5 5 5 9 12 13
3 4 5 6 6 5 5 6 6 5 5 5 6 5 4 5 6 8 10 10 11 9 6 7 11 10 3 3 4 5 4 4 5 14 22 20 14 11 10 11 13 16 19 17 15 15 13 11 6 2 2 1 3 4 2 2 3 2 1 4 1 3 3 1 3 3 4 4 4 5 4 2 1 4 3 4 4 3 5 5 7 7 6 6 5 7 9 10
4 5 5 5 5 5 6 6 6 5 5 5 5 5 4 5 7 8 10 9 10 8 4 5 8 10 10 7 4 3 3 3 8 17 22 20 15 12 11 12 14 17 16 15 16 13 6 3 2 2 2 2 2 2 2 4 5 3 2 2 4 4 4 1 1 3 4 5 4 4 4 3 4 2 1 4 6 6 7 7 8 8 8 10 9 7 7 7
5 5 5 5 6 6 6 6 6 5 4 5 4 4 5 5 7 8 9 9 9 8 5 5 6 6 4 6 10 9 6 1 12 19 20 20 15 13 12 12 15 16 13 17 18 11 5 6 3 1 2 3 2 2 2 5 5 5 0 2 3 4 5 2 2 1 1 5 3 5 5 4 6 4 2 5 6 7 8 8 9 10 11 12 9 7 7 7
5 5 5 5 6 6 7 7 6 5 3 4 3 4 4 5 7 8 8 9 9 9 7 7 9 6 2 2 4 7 5 5 16 19 19 18 14 13 12 12 17 17 17 20 16 8 5 7 5 2 4 2 2 2 3 6 6 4 1 2 1 2 4 5 4 4 3 5 4 6 5 4 7 6 4 6 6 7 8 8 9 9 10 9 7 6 7 7
5 5 5 6 6 7 7 6 6 5 4 3 2 3 3 4 6 7 8 8 8 8 7 12 13 7 2 2 4 5 4 10 15 17 18 16 14 15 12 14 20 18 16 18 17 13 7 4 4 3 2 1 4 3 4 4 2 1 0 1 1 2 4 5 4 6 4 4 5 6 3 4 6 6 3 6 8 7 8 8 7 8 8 7 6 6 7 7
5 5 5 6 7 7 6 6 6 5 4 2 2 2 3 4 5 6 6 6 8 8 7 13 18 17 12 4 6 6 7 12 15 17 18 14 13 16 15 16 19 17 14 13 16 13 6 3 4 2 1 1 3 3 3 4 1 3 1 2 0 2 4 5 5 5 3 3 4 6 5 5 6 3 1 6 8 8 8 8 7 8 7 7 6 6 8 8
5 5 6 6 6 6 5 5 5 4 3 2 1 2 2 3 4 6 5 4 5 7 9 10 12 18 18 11 8 5 8 13 15 18 18 13 12 14 15 16 15 15 12 9 11 10 8 8 4 1 1 2 2 3 3 1 1 3 2 3 5 4 3 2 5 4 1 1 3 5 3 4 4 3 4 8 8 8 8 8 7 8 7 7 7 6 8 8
5 6 6 6 6 5 5 5 4 3 2 2 2 2 3 3 5 6 5 4 3 5 7 8 7 6 9 11 8 4 10 14 16 17 17 15 10 10 13 14 12 12 9 7 8 10 11 10 7 6 2 1 2 3 2 2 2 3 4 2 7 7 6 5 2 3 3 1 3 3 3 0 5 5 6 9 8 8 8 7 7 7 7 7 7 5 6 8
6 6 6 6 5 5 5 6 5 4 3 3 3 3 3 4 5 7 7 6 4 3 3 4 7 6 5 5 5 9 12 14 17 16 18 17 10 6 9 10 10 9 8 6 7 12 15 11 8 6 2 4 2 0 1 2 3 3 3 3 4 7 5 8 4 1 3 2 1 5 3 6 7 6 6 9 8 8 7 7 7 6 6 6 6 5 5 8
6 6 7 7 6 6 8 10 11 8 5 5 5 4 4 4 5 7 9 9 7 5 4 5 6 7 7 3 3 12 13 12 18 18 18 18 11 5 6 7 8 7 6 6 6 11 15 16 13 6 3 4 0 1 2 3 4 4 4 3 4 5 5 10 7 4 4 2 2 4 4 8 5 6 8 8 8 8 7 7 7 6 6 6 6 6 5 6
6 7 7 8 7 9 11 13 14 14 11 7 5 4 4 4 3 5 7 10 13 10 4 7 8 5 5 3 2 12 15 14 19 20 18 18 13 7 10 12 8 5 5 7 8 6 10 17 15 7 4 5 3 3 4 4 4 5 4 4 4 3 5 11 8 2 3 4 1 1 5 7 5 7 9 7 7 8 7 7 7 6 6 6 5 6 5 5
7 7 8 8 9 11 12 13 15 17 17 15 13 10 7 4 2 2 4 6 14 16 9 6 7 7 5 1 5 11 14 15 19 22 20 15 9 8 14 13 6 4 3 7 14 8 5 10 8 5 5 8 7 4 4 5 5 4 4 3 5 4 5 7 7 3 2 4 5 3 4 7 6 5 7 6 7 7 6 6 7 7 6 6 5 5 5 4
8 8 7 8 8 8 8 10 11 11 13 15 17 18 17 14 6 2 1 4 7 12 14 13 8 8 5 5 6 8 12 15 18 23 25 16 7 10 15 8 4 7 5 7 18 12 5 6 4 3 5 6 6 4 6 5 6 4 4 2 4 4 4 5 7 5 4 6 7 6 4 9 9 3 7 6 7 7 7 7 7 7 5 6 5 5 5 5
10 10 8 6 4 3 4 7 7 6 4 5 7 11 16 21 20 16 9 6 3 3 9 17 12 6 4 8 5 9 16 17 17 25 27 17 10 12 12 5 5 8 5 6 13 10 5 5 3 3 5 6 6 7 6 1 4 4 4 3 4 5 4 6 8 7 8 9 8 8 7 10 10 2 7 7 8 8 7 6 6 6 6 6 6 6 5 5
11 11 9 6 4 5 6 7 7 5 2 0 1 1 4 9 17 24 24 16 8 4 3 8 8 4 2 6 7 13 16 13 16 26 29 21 14 13 13 7 4 4 6 4 7 7 4 4 4 4 5 6 5 4 4 4 6 7 7 3 4 6 4 7 9 8 8 8 7 7 9 10 11 6 7 8 8 8 5 5 6 6 6 6 6 5 5 5
11 11 9 7 6 7 8 7 6 4 1 2 1 2 2 3 6 11 15 14 8 5 5 2 2 3 2 5 9 16 13 9 14 22 31 26 13 9 12 9 6 7 5 3 3 5 4 6 5 3 4 6 6 2 1 3 4 5 5 3 4 5 5 7 11 11 6 5 8 9 10 11 12 12 8 9 8 6 5 6 6 6 6 6 6 5 6 5
10 10 9 7 7 8 10 8 8 9 5 2 3 3 1 2 5 1 2 6 5 6 7 3 3 4 3 3 9 16 7 5 12 20 32 26 9 6 8 6 8 7 4 2 4 3 4 8 4 4 5 5 5 3 2 4 5 6 3 1 4 4 7 10 10 8 7 6 10 12 12 10 10 13 8 7 6 3 5 6 6 8 7 5 6 7 6 5
9 9 8 7 7 8 9 8 8 9 10 9 10 8 4 5 7 6 3 4 4 5 7 6 7 5 5 2 10 15 4 5 11 17 30 25 9 6 4 5 8 5 6 4 4 4 6 7 5 7 5 3 5 4 7 8 6 6 4 3 3 4 8 11 7 4 6 4 10 14 11 8 10 10 2 5 6 5 7 8 7 8 7 6 6 7 7 6
8 8 9 8 6 6 7 8 7 6 10 12 12 9 6 7 7 4 2 5 1 4 3 5 6 5 6 4 11 14 6 6 7 11 23 19 7 5 3 5 7 4 6 6 5 5 5 3 6 6 4 3 5 6 8 8 5 4 3 3 4 6 5 8 9 9 7 5 8 12 10 6 7 5 8 8 8 8 9 9 8 7 7 7 6 6 7 8
7 8 10 10 6 4 5 7 7 7 8 8 9 8 6 5 3 1 2 4 2 2 1 1 3 4 4 4 12 9 3 4 3 8 19 13 5 4 3 3 5 5 5 5 8 8 3 4 4 6 7 6 4 6 7 6 5 4 1 1 5 9 7 9 11 12 11 6 4 6 8 5 3 4 5 5 7 9 7 9 9 8 7 6 6 6 8 10
6 7 9 10 8 4 3 5 6 7 6 5 6 5 4 3 1 3 3 4 4 3 2 2 2 5 6 9 14 4 3 5 4 8 15 12 5 3 3 1 4 5 4 4 8 6 1 3 4 7 7 7 6 4 4 4 4 6 3 3 7 10 11 14 13 10 8 6 2 6 5 5 3 3 4 3 6 7 5 8 9 7 6 6 7 8 9 10
5 6 7 9 9 6 4 2 3 4 2 2 3 2 0 1 2 3 3 4 4 3 4 4 3 9 9 11 14 2 5 7 8 11 15 15 7 2 3 4 2 4 2 2 4 2 2 4 5 6 4 6 7 5 3 3 4 4 5 5 8 9 11 16 13 7 3 6 4 6 4 5 4 3 4 5 7 7 6 8 8 6 6 6 7 8 10 10
5 5 6 7 8 7 4 1 1 2 1 1 2 1 2 2 1 1 3 5 4 2 4 5 3 9 8 10 12 4 3 7 9 13 15 17 11 2 5 5 2 3 2 3 4 1 1 6 7 6 5 6 7 5 4 2 4 4 7 6 9 11 14 15 11 5 3 5 4 4 5 5 6 4 5 8 8 7 6 7 6 5 7 9 10 10 11 10
7 7 7 7 7 7 3 1 1 1 1 0 0 1 2 1 3 2 5 4 3 2 1 3 3 7 7 9 12 7 2 5 4 10 15 20 15 2 5 5 1 4 3 5 4 4 1 3 3 4 6 5 4 5 6 1 2 6 8 7 8 10 14 13 8 6 4 2 3 4 7 4 8 6 5 7 7 5 6 6 5 6 9 10 11 11 11 10
9 9 9 8 7 6 3 2 3 1 1 1 1 1 0 2 2 3 6 2 2 2 0 2 4 6 7 7 9 5 2 2 3 6 12 17 18 7 4 3 2 2 3 6 3 3 1 1 4 4 4 1 4 8 5 3 1 8 7 8 7 7 11 9 4 5 3 1 3 5 8 4 8 6 3 3 4 3 3 2 3 7 9 9 10 11 10 9
10 10 9 8 6 5 4 2 2 2 2 1 1 0 2 2 3 5 5 1 1 2 1 3 3 4 7 7 6 6 5 4 2 5 6 7 14 12 4 2 5 4 4 6 3 2 3 2 3 3 2 3 4 7 2 5 3 6 6 8 7 5 6 4 2 2 3 0 4 4 8 5 6 3 1 1 1 3 2 4 6 8 9 9 9 10 9 8
14 13 11 8 4 3 3 1 1 4 3 3 2 2 2 2 5 6 2 1 1 3 4 4 3 4 7 6 4 6 5 5 5 6 5 4 10 13 6 5 5 4 5 6 4 5 5 3 1 2 1 2 1 4 3 5 6 7 5 6 7 5 3 3 3 4 4 3 3 5 9 7 4 2 2 2 2 5 5 6 8 8 10 11 10 10 10 9
16 17 16 14 8 3 1 2 3 3 2 3 3 3 4 3 5 3 1 3 2 3 2 2 4 5 6 4 4 6 4 5 5 5 4 3 6 7 6 4 2 3 5 4 4 6 4 2 3 4 2 1 3 4 5 6 7 6 4 5 7 5 5 4 4 4 3 5 3 7 10 6 3 2 3 3 3 5 5 7 8 9 11 12 11 11 10 10
15 17 18 17 13 8 5 4 2 3 2 3 2 4 6 5 3 0 3 3 1 2 1 2 4 5 4 4 5 6 3 3 5 5 3 3 4 4 5 5 3 2 2 3 4 5 4 5 5 5 3 1 4 3 5 4 4 5 3 5 5 3 4 5 4 3 5 7 6 7 7 4 4 2 4 4 3 3 5 10 9 8 9 10 11 10 11 13
10 15 18 19 17 13 8 4 3 3 3 2 4 6 8 5 1 0 2 3 2 3 2 2 5 5 3 3 2 4 4 2 2 5 4 4 5 4 4 7 7 4 1 2 3 2 3 5 4 3 3 2 2 0 2 1 2 3 1 4 2 1 1 3 3 3 7 9 9 8 4 3 5 3 4 4 1 1 6 8 7 9 10 11 13 14 16 17
7 11 16 19 19 16 11 7 3 3 2 4 7 7 6 3 1 1 1 3 2 3 4 3 4 5 4 2 2 2 2 2 2 5 4 4 3 3 3 5 6 4 2 2 2 1 3 5 6 3 4 3 2 2 2 3 1 3 1 4 1 3 4 3 4 4 6 8 6 4 2 3 4 2 4 4 3 5 9 11 13 14 14 15 16 16 17 15
6 8 13 17 19 17 14 8 3 2 2 6 9 5 3 2 1 1 1 2 1 2 5 5 5 5 5 4 3 5 2 2 2 3 3 3 2 3 3 2 4 4 4 2 1 2 2 6 8 7 7 3 3 3 0 2 2 2 3 2 4 4 5 1 4 4 4 5 4 2 3 3 5 3 2 7 12 14 15 14 15 15 16 17 15 15 15 14
5 4 8 16 21 19 15 8 2 3 4 7 8 3 2 1 2 2 2 1 0 1 2 4 3 2 4 3 3 7 5 2 3 3 2 1 2 3 3 3 3 3 3 1 1 0 1 5 8 4 6 6 2 1 1 1 1 3 2 4 3 1 4 3 2 4 4 5 4 4 6 7 6 3 4 13 16 15 14 13 15 16 16 16 15 15 16 15
4 1 4 16 24 19 12 8 5 5 7 8 7 3 2 1 1 2 1 1 1 2 4 3 0 1 2 2 3 6 5 3 4 4 2 1 1 2 2 3 3 3 5 3 0 1 1 3 7 3 3 8 4 4 4 4 2 3 1 1 2 1 2 1 2 4 6 8 6 7 9 6 4 3 6 12 13 13 15 15 16 17 16 15 16 17 18 17
4 1 3 16 23 14 9 11 9 8 8 7 4 2 2 1 2 2 1 0 0 2 4 1 1 2 1 1 2 4 4 2 3 3 2 2 2 2 4 2 3 4 6 3 1 2 1 1 6 4 5 8 4 3 3 5 4 3 3 3 2 2 2 1 2 2 5 8 8 9 10 4 1 2 7 11 12 14 16 15 14 16 16 16 16 16 17 16
3 3 2 16 17 8 14 19 14 8 7 5 3 2 2 1 2 3 3 2 0 1 2 0 1 2 2 2 1 2 3 2 3 2 2 1 2 1 2 2 3 6 7 3 2 2 2 0 4 6 6 6 3 2 2 3 3 4 5 4 3 1 0 1 2 2 1 6 7 8 9 5 2 3 6 12 14 14 14 15 14 14 16 17 17 16 16 16
4 4 3 17 12 3 10 18 11 5 5 4 2 2 2 2 1 2 2 1 0 0 1 2 1 1 1 2 2 2 3 3 2 2 1 2 2 1 0 1 1 4 5 5 3 2 2 0 3 5 5 4 5 4 3 3 1 3 5 3 2 1 1 2 4 2 2 3 6 7 10 8 1 2 8 13 12 11 13 15 14 15 17 17 17 17 17 16
6 3 5 18 9 6 9 10 4 4 5 2 2 2 1 2 2 2 2 1 1 0 1 2 1 1 0 1 2 1 2 2 2 2 1 1 1 1 2 1 2 1 1 2 3 2 0 1 2 4 4 6 9 6 1 1 2 1 2 2 2 2 2 2 7 4 0 3 6 6 9 7 1 4 12 12 8 10 12 14 15 15 16 16 17 18 17 16
4 3 6 17 6 9 13 7 3 6 4 0 1 1 2 2 1 1 2 2 2 1 3 2 0 1 0 1 1 2 2 1 1 2 1 1 1 3 3 4 4 1 2 1 2 2 0 0 2 5 4 6 7 4 3 2 3 2 1 0 1 1 2 4 5 2 1 3 4 6 10 7 1 8 13 9 8 11 12 13 16 15 14 15 18 18 17 16
2 3 5 17 10 5 7 4 2 4 2 1 3 3 3 2 2 1 1 2 1 1 2 1 1 1 1 1 1 1 1 1 1 1 2 2 1 2 4 5 2 2 1 1 1 2 1 0 2 4 6 7 7 6 5 3 3 3 4 2 1 3 2 3 3 2 0 3 2 6 12 9 5 11 13 9 9 13 13 14 15 14 14 15 17 16 16 16
3 1 3 16 20 12 4 4 6 5 3 3 4 3 3 3 1 1 1 1 1 2 1 1 1 1 1 0 1 1 1 1 1 2 3 1 1 2 3 4 1 1 1 3 2 0 1 1 1 3 4 8 8 7 8 8 6 5 5 7 4 4 2 2 2 2 2 4 4 5 11 13 13 15 14 10 11 15 16 15 13 12 13 15 16 16 16 14
3 3 2 8 14 11 4 1 5 6 4 4 4 3 3 2 2 1 2 1 1 1 1 1 1 1 2 4 3 3 2 1 0 2 2 0 2 2 2 3 2 1 2 2 2 3 1 1 1 3 2 5 7 9 10 9 8 8 11 12 6 1 1 2 1 4 6 8 7 7 11 17 18 16 12 11 14 17 17 16 14 12 13 16 16 16 16 14
3 3 2 1 4 5 5 5 5 4 3 4 3 1 2 2 2 2 1 0 0 1 1 2 3 3 2 4 3 3 4 3 2 2 1 1 2 3 2 1 2 1 2 1 2 4 3 3 1 1 5 8 9 12 13 10 9 11 13 10 3 2 4 3 1 6 7 7 11 14 17 21 22 17 12 12 15 16 16 16 15 13 14 15 16 17 17 16
3 2 1 2 2 2 3 3 4 5 5 4 3 1 2 2 2 1 1 2 2 1 1 2 5 4 1 2 1 1 4 5 2 1 0 1 1 2 3 2 2 1 2 1 1 4 4 2 3 2 7 11 10 11 12 10 9 12 9 3 2 2 4 2 3 6 6 6 13 20 23 24 22 17 12 12 15 15 16 16 14 14 15 17 19 18 16 17
3 4 1 3 4 3 2 1 3 6 7 5 3 2 2 3 2 1 1 2 3 3 2 1 4 5 3 1 2 1 2 3 2 2 1 1 1 0 1 2 2 1 3 3 3 2 3 3 4 2 7 11 10 10 10 9 12 13 5 1 2 2 3 3 5 6 6 9 15 20 24 22 17 12 12 13 14 15 15 14 15 17 18 19 20 18 17 19
2 3 2 4 4 1 0 2 4 5 5 4 3 1 1 3 1 1 1 2 1 4 3 2 4 6 3 1 4 1 3 3 3 5 2 1 2 1 2 2 1 1 3 3 2 1 2 3 4 1 4 8 9 9 9 11 15 12 4 1 3 4 4 6 7 7 8 13 18 20 21 18 10 8 12 14 15 15 15 16 16 17 19 21 19 18 19 21
5 5 6 7 4 3 2 3 3 5 4 4 2 0 1 1 2 2 1 2 1 0 1 0 4 6 2 3 4 2 5 3 4 6 4 3 2 2 2 2 3 1 3 2 2 3 3 3 3 4 3 6 6 8 12 16 15 9 3 3 5 5 4 4 5 8 10 15 20 19 15 12 9 11 16 18 18 17 17 17 16 16 19 20 17 17 20 22
7 5 5 7 4 3 2 3 4 4 2 1 1 1 0 1 1 2 2 1 2 2 2 2 2 3 2 4 3 3 4 3 4 4 3 2 2 3 2 1 4 4 2 1 0 1 2 2 4 3 3 7 9 11 13 13 10 6 2 1 2 5 6 5 6 10 13 13 14 13 10 11 13 16 20 21 21 19 17 15 14 17 19 17 16 18 21 21
Wind_Direction
93 76 62 44 26 22 18 10 7 355 346 334 341 3 30 43 32 30 27 25 19 15 4 269 190 156 157 167 147 8 14 42 24 27 34 1 345 344 343 338 338 337 338 334 333 341 329 339 339 327 319 297 232 198 335 15 65 60 78 97 337 222 181 227 222 316 94 330 350 6 21 97 107 64 129 71 54 70 67 63 63 62 60 59 62 58 47 38
87 72 50 26 16 17 15 12 6 356 345 337 351 22 65 52 33 29 25 19 12 5 0 310 233 204 216 248 261 319 336 22 26 30 17 355 350 348 346 349 343 339 345 342 335 344 337 315 319 339 8 359 312 203 35 350 76 95 121 101 247 204 190 274 95 41 29 347 6 38 43 71 52 343 122 81 44 52 68 54 51 62 53 54 57 58 52 45
83 66 31 15 14 19 18 11 5 358 355 357 29 89 89 52 29 26 23 17 13 7 10 7 312 225 227 251 263 303 319 14 26 12 359 355 356 356 356 354 344 341 341 336 327 315 295 285 295 318 19 301 271 118 91 349 50 147 114 87 250 199 95 23 68 47 9 353 55 73 56 55 12 354 60 107 84 55 77 78 67 76 66 61 55 59 56 49
78 50 19 15 19 22 17 9 7 9 19 42 84 101 83 45 28 26 22 20 18 14 20 34 37 32 226 236 250 290 327 33 20 343 350 354 356 357 358 353 345 340 335 330 320 300 280 281 288 278 135 295 287 72 76 320 59 36 105 143 247 143 80 31 76 60 351 354 69 104 67 60 27 24 63 138 104 65 120 144 124 116 102 91 68 66 63 56
62 35 21 23 25 21 13 9 11 21 40 67 87 87 64 35 26 23 21 23 22 22 34 47 48 49 66 220 246 280 355 51 324 337 347 347 349 349 349 352 346 338 338 337 325 310 282 270 289 340 100 321 338 34 3 297 93 51 88 146 245 71 103 190 101 51 4 9 55 92 89 103 152 40 57 142 140 171 171 150 135 128 119 111 99 83 73 66
47 33 28 28 24 17 9 7 9 21 44 65 74 66 43 29 23 18 17 19 26 32 34 38 42 49 62 75 60 358 70 109 313 337 343 341 346 343 345 348 348 346 350 357 351 344 316 281 315 337 37 58 40 86 294 321 79 84 300 75 38 76 119 197 89 19 17 56 61 119 141 126 101 66 49 109 137 168 162 150 136 128 124 112 102 91 79 76
44 35 34 25 19 14 4 2 2 10 39 58 61 45 31 25 21 17 16 18 31 41 34 19 11 11 43 77 65 49 83 112 328 339 339 343 347 343 349 351 359 6 22 22 8 1 13 34 33 252 63 56 82 105 333 346 51 89 280 355 37 89 121 144 131 284 75 100 132 142 133 136 133 144 121 113 143 155 147 142 133 127 119 108 99 93 84 79
44 38 33 24 20 10 3 6 8 16 41 55 48 34 29 24 20 18 25 26 33 43 41 22 5 351 308 203 79 50 58 329 333 343 341 348 359 355 353 1 11 21 39 33 16 8 25 34 14 22 64 43 86 61 1 14 25 66 110 281 82 99 143 151 161 220 173 126 134 104 106 170 161 139 123 151 158 150 147 140 136 126 112 105 102 98 89 77
45 40 33 28 22 11 13 20 23 33 46 52 40 32 29 22 23 25 35 38 38 42 42 37 30 37 93 160 96 67 359 335 341 348 347 350 4 3 6 19 17 23 41 34 25 28 37 38 1 24 75 343 73 46 5 52 20 290 77 307 175 173 175 164 194 213 180 147 129 101 114 174 149 119 120 179 169 160 155 148 148 132 119 118 113 107 100 86
45 41 37 31 24 21 27 22 24 36 46 62 58 43 37 26 30 33 37 47 51 48 49 52 50 58 77 95 74 61 334 346 358 356 351 351 2 8 21 27 17 24 43 35 26 28 29 8 312 281 144 20 52 20 18 94 196 272 14 14 349 185 194 177 193 217 172 153 155 148 179 182 163 142 191 197 175 165 158 159 159 135 135 132 122 116 105 99
44 44 39 32 29 31 25 13 16 32 54 89 86 67 49 42 41 28 23 33 57 64 67 67 54 56 69 73 72 52 346 359 5 0 359 355 3 14 23 23 16 23 33 30 20 17 11 356 335 35 64 58 35 6 14 65 299 310 54 18 330 334 299 213 180 223 149 129 215 170 164 163 186 251 205 184 172 164 162 169 162 140 146 137 128 126 112 109
48 48 40 35 34 31 20 15 18 36 85 107 94 86 67 58 39 22 24 32 62 88 80 64 41 39 60 61 66 35 8 12 5 3 8 1 359 15 23 18 13 20 24 15 4 9 10 358 33 68 24 134 84 29 353 320 356 355 66 57 320 349 334 292 221 196 133 221 248 115 49 225 220 249 180 164 168 165 162 172 166 149 150 139 131 127 121 117
56 51 42 40 38 41 44 44 40 46 94 103 92 86 67 56 39 36 47 53 66 79 66 39 35 46 55 58 57 28 18 14 9 9 9 3 1 13 19 7 356 11 24 11 1 18 23 16 50 80 56 74 99 129 49 343 31 359 33 82 340 6 343 307 313 64 101 224 201 86 346 281 235 217 168 162 170 165 166 177 170 157 151 142 137 126 123 116
59 50 48 46 49 66 66 62 57 59 84 98 90 81 68 59 56 60 53 52 54 40 36 30 34 58 62 89 66 24 11 7 15 15 4 359 5 10 355 350 341 346 9 13 24 37 42 42 50 63 51 54 354 261 40 10 31 5 358 41 27 27 325 315 324 11 25 248 155 88 289 279 255 198 178 175 172 169 177 185 172 162 152 140 140 126 117 110
57 50 47 48 67 80 73 65 61 65 75 81 74 60 50 40 45 54 43 53 52 42 63 50 41 73 69 79 19 6 1 4 12 9 0 354 2 3 340 346 343 327 343 360 5 20 48 50 51 51 352 353 25 44 20 8 20 24 21 346 354 31 319 316 321 11 13 285 265 14 276 278 267 200 186 176 172 177 183 193 174 160 155 141 137 126 119 104
54 43 44 66 91 89 78 69 64 70 75 77 74 63 51 20 321 1 30 72 58 48 60 40 44 96 93 354 332 353 358 358 358 358 1 357 354 344 340 345 351 348 325 357 6 3 44 54 59 61 22 10 27 44 41 30 356 7 48 325 316 353 330 317 316 321 19 324 314 300 266 285 290 195 183 177 176 187 186 192 172 154 153 136 123 115 108 91
55 47 58 92 108 97 79 60 53 64 72 75 74 69 63 53 54 115 112 121 72 54 55 33 41 105 70 357 345 347 339 340 347 354 2 8 354 339 346 345 335 347 326 2 17 20 34 45 53 49 42 32 21 42 60 27 328 330 25 340 295 322 325 315 311 314 0 347 313 296 257 278 293 191 177 189 181 197 198 186 169 145 128 112 97 91 89 81
61 58 70 93 100 73 33 11 11 25 45 65 69 67 63 55 60 72 77 100 88 46 47 23 28 96 22 356 346 321 322 331 350 359 4 11 358 346 351 320 287 340 1 15 18 23 28 28 56 57 29 24 22 51 69 355 275 280 305 317 299 315 311 298 306 316 341 334 307 305 287 283 298 198 182 205 190 203 207 173 150 126 108 99 82 79 77 72
63 65 75 73 47 17 357 350 354 355 331 129 62 16 42 40 52 56 52 59 62 47 54 357 16 109 280 319 320 323 329 343 2 5 6 2 349 353 359 343 310 18 48 44 6 12 37 38 46 43 4 352 360 63 114 209 234 259 266 248 274 300 291 279 294 306 332 329 296 292 286 288 302 270 210 210 201 203 194 127 120 114 100 94 79 76 71 66
62 68 73 61 42 24 16 21 27 28 8 210 247 351 11 9 37 38 31 47 74 98 115 274 1 100 284 295 327 341 350 9 12 7 4 357 343 357 5 1 25 45 49 94 38 357 45 63 48 18 309 300 310 318 164 239 266 290 277 247 280 292 290 290 295 305 346 345 288 282 287 287 292 280 238 201 200 191 137 106 107 102 87 85 78 70 65 58
61 64 64 53 41 33 32 36 44 54 62 170 165 66 109 132 80 128 322 41 59 82 90 45 50 70 339 296 342 354 356 355 6 6 2 360 360 15 1 6 41 33 353 91 84 352 52 61 20 301 280 287 316 317 24 15 355 351 332 303 328 306 296 293 286 307 5 357 295 289 296 295 288 282 252 180 174 147 112 107 93 85 79 76 72 58 49 37
58 54 49 37 33 34 35 35 35 53 72 99 104 88 126 139 115 153 162 79 30 35 71 43 50 45 346 354 358 359 19 358 359 1 360 3 22 29 359 28 58 46 343 22 55 16 50 46 319 295 296 328 7 28 40 24 16 10 8 40 354 309 308 294 270 319 8 345 296 296 303 298 292 294 306 110 101 73 81 93 88 84 74 58 61 53 39 24
53 44 34 24 29 38 39 40 36 58 80 88 91 93 120 113 117 152 99 98 45 352 41 37 49 19 351 23 357 357 42 28 352 347 357 5 19 28 47 44 52 52 12 38 73 65 65 350 304 319 351 27 18 24 40 22 13 17 12 33 321 303 329 301 295 331 330 269 266 296 309 296 303 359 55 64 82 82 77 85 84 80 73 60 61 60 41 21
48 36 28 24 33 48 41 38 40 58 69 85 96 103 126 126 119 95 53 93 58 336 355 36 82 32 354 347 346 351 75 43 5 346 358 10 7 6 58 60 51 43 21 61 84 89 111 280 322 16 27 56 41 16 47 39 358 340 321 48 309 307 307 282 296 325 321 281 247 316 324 304 332 58 77 62 81 87 79 83 74 61 63 55 44 43 32 20
40 29 24 24 30 30 13 21 40 60 61 83 106 104 116 155 242 1 58 80 17 318 339 1 50 17 344 337 344 339 132 45 34 353 359 15 7 358 23 20 75 35 352 57 79 88 81 312 24 36 20 37 46 22 45 63 4 330 270 249 291 304 300 292 305 333 335 311 344 42 355 300 337 76 130 98 79 82 76 77 72 57 48 37 33 34 22 18
25 17 12 12 15 8 346 354 41 53 44 52 80 103 108 215 282 356 70 71 5 313 353 354 358 1 348 340 338 352 83 7 340 351 8 16 2 129 50 341 56 36 321 56 67 99 13 354 37 51 26 22 31 22 8 75 50 331 263 270 296 306 302 298 310 336 328 291 311 55 28 296 327 44 117 114 92 88 73 66 67 53 34 33 38 32 15 11
349 348 348 346 351 357 345 277 27 15 342 349 25 45 315 280 218 11 67 48 359 337 0 332 336 1 354 345 348 48 82 311 326 354 7 15 3 124 70 6 16 359 269 84 31 283 345 3 20 36 32 23 22 358 321 80 77 294 271 303 313 309 299 295 308 309 257 289 318 50 38 318 310 358 82 105 101 92 71 57 50 35 36 37 31 19 6 2
329 326 326 322 325 332 323 284 289 321 45 71 356 341 315 196 172 115 83 68 345 13 9 307 342 1 354 2 18 71 193 285 7 345 347 18 16 35 69 35 27 308 296 91 41 291 343 20 15 41 34 26 6 307 287 135 97 269 275 304 302 293 290 290 303 289 267 320 316 352 24 341 302 329 61 98 104 95 76 55 31 33 40 34 20 4 358 358
334 322 314 306 301 298 276 282 289 244 119 126 79 345 231 130 120 59 76 107 316 359 236 319 353 343 346 8 21 46 353 349 71 321 338 20 17 23 88 20 23 335 341 82 96 273 304 217 188 115 64 5 279 284 275 112 311 278 291 311 297 280 281 284 277 275 310 108 248 335 24 359 299 315 26 66 81 96 93 65 30 38 36 22 8 357 354 357
356 342 325 305 284 268 247 283 296 186 159 158 117 134 158 106 63 56 45 28 348 335 317 21 2 332 6 17 357 3 19 4 343 343 354 19 12 23 75 342 33 65 9 35 74 251 287 274 193 126 113 208 251 283 293 90 3 323 341 330 312 286 278 294 258 283 14 266 238 357 20 341 302 311 331 331 125 149 128 38 19 23 20 7 359 353 351 352
21 15 5 353 330 273 262 333 102 153 156 159 148 98 110 38 54 85 62 315 5 337 355 11 340 357 19 26 355 348 5 344 339 20 15 1 17 20 25 6 18 42 12 5 357 326 336 351 289 256 237 167 21 323 339 33 22 12 5 332 330 321 322 359 358 18 21 301 279 0 354 321 285 271 255 258 155 142 115 51 19 13 7 356 352 351 351 348
31 31 29 25 25 20 23 69 134 145 132 156 151 66 82 36 30 82 305 325 1 340 358 320 310 352 359 15 12 338 340 345 352 41 40 34 41 33 46 43 342 5 6 339 337 341 337 311 296 307 298 103 46 356 337 357 20 16 357 360 0 348 352 353 340 360 327 284 314 351 338 310 260 255 202 201 184 162 118 57 28 14 0 351 351 349 344 339
28 32 36 37 40 50 66 86 121 123 120 144 112 52 76 75 40 328 299 339 358 303 317 255 296 326 344 20 5 330 347 351 350 23 46 85 63 36 50 36 13 35 345 310 354 353 325 309 327 348 335 51 64 28 331 332 5 359 5 40 18 344 346 322 302 325 288 281 311 335 327 298 295 305 176 184 202 181 51 35 26 10 356 347 347 344 341 342
21 27 34 38 42 47 55 59 71 113 133 104 74 53 61 76 69 332 328 306 269 314 325 278 314 336 22 51 336 332 11 332 350 32 18 42 43 9 4 2 8 39 41 356 7 13 360 322 314 358 330 333 31 119 216 216 344 316 130 95 50 266 243 259 257 296 292 294 311 322 313 267 307 321 148 135 131 99 25 19 10 4 359 353 350 350 348 345
24 27 30 33 35 38 39 38 51 105 126 75 65 60 72 100 245 36 336 278 290 327 314 313 1 19 14 353 312 6 27 292 5 56 30 34 52 2 348 344 350 15 55 29 329 18 32 279 265 311 305 279 310 260 169 103 344 281 119 78 6 220 193 226 238 241 276 291 298 302 244 221 303 337 112 89 32 11 10 9 8 5 0 357 353 349 345 338
34 33 30 28 25 23 23 27 47 83 108 82 66 58 92 159 236 126 221 268 301 300 316 347 28 38 347 321 342 354 344 267 345 47 43 53 81 10 349 307 333 16 59 75 304 13 29 278 287 326 324 278 210 236 147 66 326 330 32 339 262 192 148 165 279 267 290 296 286 294 282 297 325 328 42 13 360 359 2 6 7 1 358 356 348 339 336 335
44 50 32 22 13 8 10 16 52 81 81 80 78 85 140 173 198 191 243 320 353 282 18 23 16 28 345 324 324 333 341 343 347 25 39 47 62 19 354 307 329 31 42 45 257 191 165 287 292 310 335 317 236 171 359 359 75 66 7 279 252 87 101 116 288 297 307 292 278 299 302 313 320 302 5 5 355 350 354 4 5 357 355 348 338 335 336 336
19 98 36 15 7 4 13 33 76 88 76 71 77 100 106 107 211 210 267 358 329 20 60 68 326 42 18 339 300 316 348 6 350 14 36 18 22 55 49 320 318 29 1 346 345 285 135 309 291 256 338 328 343 49 353 321 45 86 350 301 108 39 324 15 321 299 301 295 291 303 304 304 293 300 360 354 342 346 356 5 1 351 347 340 337 339 337 335
6 61 27 3 3 12 47 71 78 69 67 72 83 104 102 128 264 250 196 171 148 71 66 49 299 13 19 28 282 307 350 7 333 1 48 25 354 67 79 334 296 346 350 8 123 300 25 335 284 288 344 339 349 25 337 310 330 12 10 10 66 146 214 261 301 278 290 292 296 309 307 300 290 355 359 346 348 1 1 359 354 344 342 340 340 339 335 334
16 83 359 353 8 57 76 70 64 48 61 92 134 125 89 163 265 268 212 186 161 104 83 267 339 16 332 347 343 310 346 337 321 5 58 31 4 32 55 20 312 322 337 27 80 323 351 143 267 297 345 357 342 305 265 268 311 353 1 343 334 339 233 274 260 186 252 288 300 310 302 304 45 42 1 357 5 9 356 349 347 342 341 341 339 336 333 331
40 87 324 347 360 129 70 57 52 41 71 80 96 97 75 150 187 303 257 206 150 175 126 146 127 50 331 338 330 311 338 326 335 48 47 20 42 16 339 103 322 321 347 22 26 340 346 250 255 296 333 338 293 262 224 215 219 357 329 278 198 145 80 321 289 236 144 278 296 300 298 304 15 51 6 11 13 4 353 347 344 342 343 340 335 332 330 329
53 101 318 348 3 136 75 50 21 39 80 70 55 102 71 120 118 336 301 352 39 342 35 99 122 39 68 281 300 334 1 329 346 33 53 62 61 238 255 317 305 263 85 357 302 263 267 196 245 271 270 267 274 281 301 236 132 86 271 210 146 139 126 275 284 288 81 287 292 289 291 292 163 25 6 16 15 357 352 347 343 343 341 336 331 330 330 328
72 154 344 1 20 124 80 56 340 33 69 161 37 55 28 77 104 356 348 17 24 2 16 34 60 26 133 236 341 1 349 327 346 21 91 112 252 236 259 315 327 99 110 346 302 283 295 57 300 287 272 267 276 304 9 26 56 38 306 122 147 206 170 212 248 303 340 275 299 302 290 285 53 13 2 14 9 352 348 347 344 339 336 334 330 329 328 324
111 177 10 18 31 115 86 88 124 68 87 115 56 32 7 51 89 54 16 1 4 75 46 2 293 9 255 200 119 249 299 41 13 1 96 129 243 260 280 304 340 56 61 159 245 311 303 299 347 340 332 328 330 341 340 335 2 338 304 319 258 230 267 258 260 12 203 232 312 309 292 291 334 352 351 3 0 347 343 344 342 335 334 334 327 325 325 321
71 77 336 21 39 63 93 144 136 124 142 101 70 51 32 32 41 153 149 342 319 148 112 310 309 351 279 326 34 299 2 66 292 339 53 102 277 305 293 290 310 83 193 184 173 44 261 230 76 66 353 329 326 321 319 320 326 317 302 309 287 215 226 287 289 310 289 301 323 288 284 296 319 337 344 353 351 343 339 338 335 334 334 329 324 322 321 320
78 52 324 3 30 51 64 80 100 112 142 120 72 36 63 50 305 238 133 37 321 127 69 331 356 11 359 30 25 330 338 20 284 37 56 19 269 277 261 266 284 230 190 179 151 114 82 289 110 127 215 275 279 282 297 309 308 304 305 311 315 182 84 41 312 282 302 315 304 276 287 302 316 331 342 348 345 339 334 333 332 333 332 326 322 318 316 320
99 85 76 12 8 34 34 18 51 84 129 126 100 33 76 72 321 330 64 69 303 61 40 17 36 43 22 29 25 316 314 338 24 66 86 227 250 296 292 250 279 263 172 166 154 116 60 336 303 194 247 263 270 280 293 297 288 293 305 318 356 47 32 46 282 291 325 327 305 306 315 313 315 327 343 346 340 334 329 329 329 328 326 322 318 315 315 320
80 125 141 114 82 60 40 18 54 72 65 82 102 102 86 63 28 11 313 324 10 37 58 23 19 29 38 32 59 289 322 343 359 28 274 257 279 345 341 290 261 169 119 39 18 111 98 276 250 238 273 278 280 283 291 295 291 299 309 338 58 44 40 45 273 295 335 313 295 308 317 313 312 325 342 341 334 330 326 325 322 320 321 319 318 316 316 322
83 103 31 49 96 142 161 53 72 75 63 68 79 65 91 94 66 261 277 359 2 347 47 52 335 331 332 14 96 159 313 347 329 286 252 268 289 39 346 290 281 123 98 32 342 109 122 262 266 261 281 286 288 285 289 299 306 311 319 99 61 41 41 347 298 296 299 281 287 305 310 307 310 325 330 330 330 327 322 318 317 318 320 320 319 318 320 325
133 139 126 66 69 94 71 32 69 75 49 50 74 47 80 113 126 253 10 49 4 330 16 70 304 304 298 43 82 135 229 208 234 253 213 149 299 227 183 213 235 346 38 39 331 356 59 300 295 345 304 293 293 295 304 310 309 312 319 8 5 21 10 340 322 310 303 297 303 310 308 305 315 325 318 323 329 325 318 317 318 320 320 320 319 321 325 326
97 122 134 110 63 6 13 16 65 85 37 12 79 155 24 104 170 162 54 43 130 323 359 44 305 307 315 50 65 200 235 212 212 229 201 178 230 209 197 199 169 120 3 14 330 357 23 315 320 28 353 291 295 319 322 315 310 308 311 333 352 1 346 319 295 304 315 313 313 314 310 309 321 323 320 325 328 323 317 318 319 318 318 317 319 324 326 325
94 89 107 103 76 5 17 13 34 75 65 315 195 185 174 200 213 99 71 9 69 87 200 203 323 336 7 10 354 236 233 222 214 226 199 152 119 100 97 118 129 136 155 127 347 343 38 339 325 13 340 298 314 329 319 313 319 323 308 311 353 336 319 290 281 306 316 315 313 314 313 316 322 325 325 326 326 322 318 319 319 317 315 316 322 326 325 323